Vertical_Velocity
-0 -3 -1 -2 -6 3 -0 -1 -0 2 -1 -1 -0 3 1 1 4 4 2 0 6 -0 -18 -5 17 -3 -1 2 0 -4 -10 -1 -0 -1 0 -3 2 -6 4 -5 -5 -3 -1 -1 2 3 -10 1 -1 -4 -10 -3 0 1
3 -2 5 -3 -9 0 -0 1 -1 -3 -1 -0 -2 -1 -1 -3 -3 9 0 2 8 4 -18 -2 4 -9 -4 -5 8 -2 -14 -0 -2 3 0 1 1 1 -2 -3 2 0 -11 -9 -9 -13 -3 -1 -2 -0 3 1 -0 0
1 1 -1 4 -3 2 0 -0 -0 -2 -2 -1 -4 -1 -0 1 1 9 -1 5 5 4 -15 8 -18 14 1 -6 19 6 2 -1 -7 3 2 -2 3 3 -0 -6 2 -1 1 1 16 -15 -9 -7 -9 2 5 1 1 1
0 -2 -1 -2 -3 -1 -2 -1 -0 4 3 1 2 -1 1 3 -1 7 0 4 0 5 5 -25 -8 -3 -6 -4 -1 3 0 12 13 7 1 0 2 -0 -2 -0 2 -7 -0 -2 -8 -4 -0 -11 -3 -1 3 4 -1 2
0 -1 -2 0 3 -2 -1 -0 -2 -2 -1 1 -2 2 2 -2 -0 6 -2 -4 -1 2 -0 -5 -12 -12 -6 5 -4 8 12 7 6 7 4 -4 -1 10 -4 5 -2 -5 -7 -2 -10 -11 1 -11 1 3 1 -0 1 1
-1 -1 -2 -4 -2 -1 -1 -2 -1 -1 -1 -3 -4 -3 -0 1 9 5 -12 -8 5 7 12 1 -1 -3 -11 -1 9 -1 5 9 2 2 -4 -5 -10 6 3 -2 -34 -7 3 -3 -23 3 3 -3 3 -2 -2 -1 -2 -1
-1 0 -3 -2 2 -1 1 2 -2 -1 1 1 3 -0 1 5 16 0 -14 -1 1 2 14 -5 -6 -3 5 4 -1 -1 8 -6 3 -4 -0 2 1 8 2 0 1 -4 6 4 2 11 5 4 -7 0 0 -1 -3 -0
0 -0 -2 -3 -0 -1 1 -0 -1 -1 2 -0 3 2 1 5 11 -6 -12 -2 14 17 10 2 -8 1 2 -0 -3 -4 3 9 11 -7 5 3 4 6 1 -9 -10 -11 -9 -18 3 3 -2 1 5 1 2 0 -1 -2
-2 2 -0 0 0 -0 6 8 2 1 7 2 6 8 9 4 -2 -29 6 4 13 6 0 3 -1 -5 8 -3 -1 5 7 2 -2 0 0 1 -1 -2 -10 -5 -4 -7 -12 -16 5 2 4 2 2 0 1 -0 -1 -1
2 2 -0 -3 1 2 2 1 3 2 4 4 7 -5 -2 -6 1 2 -8 3 11 1 6 1 2 -3 6 1 -2 2 4 -2 2 -7 2 3 -8 -12 -9 -6 -0 3 2 4 2 3 -1 -2 1 -1 -2 -0 -1 1
-1 -2 -3 -1 -0 -0 -1 -1 0 9 2 -1 -0 -4 1 2 2 2 -1 3 -0 2 2 -11 -6 0 -1 4 -3 1 -2 -1 3 -3 1 -0 -2 -11 -3 -7 -12 1 2 -0 4 9 5 4 1 -3 -1 -1 -0 1
-2 -1 -1 -1 -1 -1 -0 -1 2 9 3 2 -0 0 2 1 3 -2 -2 -5 3 -5 2 1 -7 -5 -4 3 3 -1 -1 4 -1 -0 3 -0 -7 -1 7 4 4 6 3 1 3 3 -0 -1 1 2 -0 -1 0 1
-1 -3 -1 7 4 -2 -3 -3 3 20 4 5 4 -0 -2 -2 2 3 -2 -6 0 1 2 4 -4 5 9 3 2 4 5 -2 -0 1 -4 -6 1 -0 -1 0 3 3 1 2 -0 1 -0 -1 -0 0 0 -1 0 -0
-0 2 -1 -2 -2 -2 -3 1 6 3 6 2 -3 1 -2 -1 -2 -3 -2 1 -4 -1 -0 -3 1 4 -0 5 -1 4 -4 -0 0 1 -6 -2 1 2 1 0 2 1 1 -0 -1 -1 -0 -0 -1 0 0 -1 -1 0
1 -2 -3 0 0 1 0 6 -3 7 1 -1 1 -4 -1 -10 0 -1 -3 -0 0 -6 6 -6 0 7 -0 3 -0 -1 1 -1 -3 -5 -2 -1 0 -0 0 1 1 1 1 1 -0 -1 -2 0 0 0 -0 1 1 1
-6 -4 -6 -4 0 6 5 1 2 3 1 3 1 1 -4 1 -5 2 0 -2 -0 1 -5 9 -0 3 -1 -0 2 -3 -1 -4 -4 -1 1 1 1 2 2 -0 -0 1 1 0 -1 -0 1 1 1 1 2 1 1 1
-1 -15 9 0 1 13 1 5 -1 -0 1 1 -4 -0 5 2 -1 -2 3 -3 1 -1 -0 3 4 -6 1 1 0 -1 -2 -1 -0 0 -1 -0 0 -1 -0 1 1 -0 -1 0 1 2 1 1 2 2 -1 -0 1 1
-1 10 2 4 2 7 7 11 -1 1 -1 -1 -1 -1 1 -2 -1 -1 -1 0 4 1 3 -1 5 2 2 1 0 0 -0 2 2 3 2 -1 1 1 1 0 0 0 0 1 3 1 1 1 2 -0 0 1 1 2
1 -2 2 2 -2 -3 -1 -2 -2 0 -6 1 -1 -1 1 -3 -2 3 2 -2 1 7 2 1 2 1 -0 0 1 0 1 2 3 3 5 0 2 2 1 2 2 1 2 2 2 1 2 4 0 1 0 4 -2 2
4 -1 3 7 1 -2 0 2 0 1 -2 -0 1 1 -0 -1 -1 -0 0 2 -1 6 2 0 0 1 3 -6 10 7 0 1 -3 -1 5 4 4 2 3 3 1 2 1 3 2 2 1 -1 2 3 3 2 1 -1
0 -1 -1 1 1 1 1 1 -0 -0 0 -0 1 -1 -1 1 2 -0 -1 -1 -1 -0 -1 0 -1 -1 5 7 8 5 0 1 -3 -4 -0 1 5 1 1 1 4 2 1 2 -1 2 2 -1 2 3 2 -2 -2 -2
-2 -0 -1 2 1 1 1 1 -1 0 -0 -0 -1 1 -0 -1 -1 0 -1 -4 -0 -0 1 1 3 3 3 5 4 4 3 -0 -1 -1 1 2 0 5 5 5 4 1 1 1 3 -0 0 2 0 -1 1 -2 2 1
5 2 -1 0 0 1 -2 -0 -0 0 -2 -2 -1 -0 -1 -1 0 3 -2 1 2 4 4 3 6 3 3 7 4 5 4 2 -2 -0 3 1 0 2 3 2 0 -2 -2 0 1 -0 -2 2 3 0 -1 -1 2 -1
2 -1 0 0 1 -2 -0 0 0 0 0 -1 -0 -1 -1 -1 0 -1 0 0 -0 4 3 0 1 2 6 5 1 3 3 3 -1 -1 1 -1 -4 -1 1 1 2 2 3 1 2 -0 0 -0 3 -0 2 -0 -1 -2
1 -2 -0 -2 -0 -1 -2 -2 -2 -2 -0 -0 0 -1 -1 -0 -1 -1 1 -1 -2 -0 2 3 2 1 -0 3 3 3 7 4 -1 -5 2 2 0 -0 -1 1 1 1 3 1 -0 0 -2 1 1 2 0 2 -1 -3
-4 -0 -4 -1 -2 -2 -1 -1 -0 -1 0 -0 0 -1 -0 -1 -3 0 1 0 -0 -0 0 1 1 2 1 2 1 2 1 0 -2 -3 -3 -0 2 4 0 -3 -1 1 6 7 -2 -3 -1 2 0 0 -2 -1 -1 1
-3 -3 1 0 1 1 -1 0 1 -1 -0 -0 -0 -1 -1 -2 0 1 2 -0 -0 1 2 2 1 1 2 2 2 1 1 1 0 -3 -1 0 1 2 6 1 -2 -4 2 5 1 3 -2 0 1 1 -3 -3 -3 -1
-0 -0 -3 -0 -0 0 -2 -0 -0 0 -0 0 1 -1 -0 1 1 -0 0 1 2 2 2 2 1 1 3 3 2 1 0 1 -0 -2 -1 -1 2 2 1 2 0 0 3 6 3 1 0 -0 -1 -2 -0 -1 -2 -2
-0 0 0 -0 0 -0 -0 -1 -0 1 1 1 -1 0 1 1 1 1 2 2 1 1 2 2 0 1 3 3 1 0 -0 -1 -2 -3 -1 -2 -0 3 4 2 -1 2 2 -3 -0 2 -0 -1 -1 -1 -2 -0 -1 -1
0 0 -1 0 -2 -1 0 0 1 1 1 1 0 -0 0 0 1 2 2 2 1 0 2 2 1 1 -0 1 0 0 -1 -0 0 4 -1 -2 -2 -0 1 1 2 3 2 1 -1 -3 -1 1 -0 -1 1 -0 -2 -3
0 0 -0 0 -0 0 -0 0 1 1 2 2 1 -1 -0 0 1 1 0 0 -0 1 2 1 -0 -1 -1 -0 0 1 -0 1 -0 1 5 1 -2 -5 -2 1 2 2 3 1 0 1 -2 1 3 0 -1 -1 0 -0
0 -0 -1 -1 -0 -0 0 0 0 1 -0 0 -0 0 -0 0 -0 -1 0 1 1 2 0 -0 1 0 -0 1 0 -0 1 2 -0 0 4 1 -4 -3 0 1 0 1 1 1 3 1 2 1 -1 -1 -2 -3 -3 -1
-0 0 0 -0 -0 0 -0 -1 -1 -1 -1 -0 0 0 -0 -0 -1 -0 1 0 0 0 0 0 0 1 -0 -0 1 1 0 3 4 4 2 1 3 2 2 2 2 4 4 2 0 1 -1 -1 -1 -2 -2 -0 -0 -2
Height
1508 1508 1508 1508 1513 1516 1514 1513 1513 1513 1514 1514 1515 1515 1515 1515 1515 1516 1515 1516 1517 1515 1513 1512 1512 1513 1513 1514 1515 1513 1514 1506 1506 1510 1506 1501 1498 1489 1485 1480 1483 1482 1490 1486 1481 1477 1464 1441 1447 1452 1441 1434 1432 1430
1503 1503 1504 1503 1509 1511 1510 1509 1509 1509 1510 1510 1510 1511 1511 1511 1511 1512 1512 1512 1512 1511 1509 1506 1505 1505 1506 1507 1511 1510 1510 1505 1503 1498 1495 1493 1485 1482 1474 1472 1467 1476 1467 1472 1469 1457 1442 1440 1439 1438 1436 1433 1431 1429
1498 1498 1499 1500 1505 1507 1506 1505 1505 1504 1505 1505 1506 1507 1506 1507 1507 1508 1507 1507 1507 1504 1501 1497 1494 1496 1498 1497 1500 1504 1499 1500 1498 1498 1497 1494 1490 1476 1470 1463 1460 1457 1455 1457 1459 1446 1443 1436 1436 1433 1432 1430 1428 1426
1493 1493 1495 1496 1500 1501 1501 1501 1500 1500 1500 1500 1501 1501 1502 1503 1503 1504 1503 1503 1503 1502 1495 1489 1489 1487 1488 1490 1490 1487 1484 1491 1492 1494 1494 1488 1482 1471 1463 1462 1459 1454 1453 1450 1444 1442 1440 1434 1431 1427 1425 1423 1423 1423
1489 1489 1491 1493 1495 1496 1496 1495 1494 1494 1494 1494 1495 1496 1497 1497 1498 1498 1497 1497 1497 1501 1491 1484 1483 1478 1478 1477 1477 1477 1478 1480 1483 1485 1479 1474 1468 1471 1460 1461 1452 1445 1444 1445 1435 1432 1433 1426 1424 1422 1420 1421 1420 1419
1484 1486 1487 1489 1490 1490 1490 1489 1489 1488 1489 1489 1489 1490 1491 1493 1494 1494 1492 1489 1488 1489 1489 1480 1470 1464 1467 1468 1465 1465 1464 1468 1472 1469 1464 1458 1458 1461 1449 1439 1413 1432 1431 1432 1427 1426 1425 1422 1423 1418 1418 1418 1417 1417
1480 1481 1483 1484 1485 1485 1484 1484 1483 1484 1484 1484 1484 1485 1486 1487 1488 1489 1488 1486 1485 1486 1482 1473 1468 1460 1458 1458 1456 1453 1453 1453 1455 1456 1449 1448 1446 1449 1435 1416 1415 1416 1418 1420 1419 1420 1418 1415 1413 1414 1414 1415 1415 1415
1476 1477 1479 1480 1480 1480 1479 1479 1478 1478 1478 1479 1479 1480 1481 1481 1481 1479 1478 1481 1483 1484 1483 1474 1465 1458 1454 1450 1449 1446 1443 1438 1436 1435 1432 1433 1436 1433 1416 1398 1409 1410 1413 1414 1410 1410 1410 1410 1409 1409 1410 1411 1412 1413
1472 1474 1475 1475 1475 1475 1475 1474 1473 1473 1473 1473 1473 1474 1474 1475 1473 1471 1474 1475 1475 1480 1472 1464 1463 1456 1446 1446 1444 1439 1434 1430 1424 1417 1417 1419 1415 1403 1392 1395 1396 1398 1400 1398 1401 1403 1405 1404 1405 1405 1406 1407 1408 1410
1469 1470 1470 1471 1471 1471 1470 1470 1470 1469 1469 1468 1469 1470 1468 1467 1469 1470 1468 1468 1466 1463 1459 1450 1449 1444 1446 1442 1438 1437 1428 1421 1410 1406 1407 1402 1393 1388 1386 1385 1386 1387 1390 1393 1395 1398 1400 1400 1400 1401 1402 1403 1404 1406
1466 1466 1467 1467 1466 1466 1466 1466 1465 1465 1464 1465 1465 1464 1465 1466 1467 1467 1464 1461 1456 1450 1441 1433 1435 1431 1435 1437 1436 1435 1423 1412 1396 1395 1396 1392 1383 1369 1374 1375 1379 1382 1383 1384 1389 1392 1393 1394 1395 1396 1398 1399 1401 1402
1462 1462 1462 1462 1462 1462 1461 1461 1461 1461 1461 1461 1462 1462 1463 1464 1464 1465 1463 1454 1446 1435 1424 1423 1421 1421 1421 1424 1427 1422 1417 1408 1388 1388 1388 1385 1366 1359 1360 1363 1370 1374 1378 1381 1385 1387 1390 1392 1393 1394 1395 1396 1397 1398
1458 1457 1457 1458 1458 1457 1457 1456 1456 1456 1455 1457 1457 1459 1460 1462 1462 1462 1469 1453 1440 1427 1424 1420 1418 1409 1412 1415 1415 1410 1398 1388 1389 1389 1383 1369 1363 1362 1361 1363 1366 1371 1375 1379 1382 1385 1387 1389 1390 1392 1392 1393 1394 1395
1454 1453 1453 1453 1453 1453 1452 1451 1450 1449 1451 1450 1451 1456 1456 1463 1452 1447 1446 1441 1438 1432 1427 1422 1413 1406 1402 1404 1397 1391 1390 1389 1394 1392 1377 1367 1364 1364 1365 1366 1368 1370 1374 1377 1380 1382 1384 1386 1388 1389 1390 1391 1392 1393
1449 1449 1449 1448 1449 1448 1447 1447 1446 1446 1447 1447 1448 1450 1449 1436 1436 1436 1436 1435 1433 1430 1425 1419 1412 1404 1395 1390 1384 1389 1390 1390 1383 1373 1367 1366 1365 1366 1366 1367 1369 1371 1373 1375 1377 1379 1382 1384 1386 1388 1389 1390 1391 1392
1445 1444 1442 1443 1443 1443 1443 1443 1443 1444 1444 1443 1442 1440 1434 1435 1431 1431 1429 1428 1428 1424 1420 1414 1406 1392 1382 1378 1379 1378 1384 1379 1369 1368 1366 1366 1366 1367 1367 1368 1370 1372 1374 1376 1378 1380 1382 1384 1386 1388 1389 1391 1392 1394
1440 1436 1436 1435 1435 1439 1439 1440 1441 1442 1441 1439 1434 1430 1430 1429 1427 1425 1424 1424 1424 1422 1419 1408 1394 1379 1371 1377 1373 1372 1373 1368 1367 1367 1367 1367 1368 1369 1370 1371 1372 1374 1376 1378 1380 1381 1383 1385 1387 1389 1390 1393 1395 1397
1434 1432 1430 1431 1433 1435 1437 1436 1438 1438 1436 1431 1429 1425 1426 1426 1423 1422 1421 1420 1420 1418 1415 1406 1401 1387 1373 1371 1369 1373 1372 1370 1369 1368 1368 1370 1371 1372 1374 1374 1375 1377 1379 1381 1383 1384 1386 1388 1390 1392 1394 1397 1399 1402
1430 1430 1430 1430 1432 1435 1436 1435 1436 1433 1429 1427 1424 1423 1422 1420 1419 1418 1416 1415 1413 1412 1411 1404 1397 1393 1389 1383 1381 1376 1374 1373 1372 1372 1372 1373 1374 1375 1377 1378 1380 1382 1384 1385 1387 1388 1391 1394 1395 1398 1400 1403 1403 1406
1426 1428 1430 1431 1432 1434 1434 1433 1432 1429 1426 1423 1421 1419 1419 1417 1416 1414 1412 1410 1407 1407 1406 1404 1400 1398 1395 1387 1381 1377 1376 1376 1376 1377 1377 1379 1380 1381 1382 1383 1385 1387 1388 1390 1392 1394 1396 1399 1402 1404 1406 1408 1409 1411
1425 1426 1428 1430 1431 1431 1430 1428 1427 1426 1423 1420 1418 1417 1415 1414 1413 1412 1410 1408 1407 1407 1406 1404 1401 1396 1392 1387 1383 1380 1379 1379 1379 1380 1381 1384 1385 1385 1387 1389 1390 1392 1393 1395 1397 1400 1403 1404 1407 1410 1412 1413 1415 1417
1423 1425 1426 1428 1428 1428 1427 1426 1425 1424 1422 1418 1417 1416 1414 1412 1411 1411 1411 1409 1410 1409 1407 1403 1400 1396 1392 1388 1386 1384 1383 1383 1385 1386 1387 1388 1390 1392 1393 1394 1395 1396 1398 1401 1403 1405 1407 1410 1412 1414 1416 1418 1421 1423
1421 1424 1425 1426 1427 1425 1426 1424 1423 1421 1420 1417 1416 1414 1414 1412 1412 1412 1413 1413 1413 1410 1406 1402 1400 1397 1394 1392 1391 1389 1389 1389 1390 1392 1393 1394 1395 1397 1398 1400 1401 1403 1404 1407 1409 1411 1413 1416 1419 1420 1422 1425 1427 1428
1420 1423 1423 1423 1424 1423 1423 1422 1421 1420 1419 1417 1416 1415 1414 1413 1412 1413 1415 1416 1415 1411 1407 1405 1403 1400 1399 1397 1396 1396 1396 1396 1396 1397 1399 1400 1401 1403 1405 1406 1408 1409 1410 1412 1414 1416 1419 1422 1424 1426 1428 1430 1432 1434
1422 1424 1423 1423 1423 1423 1424 1423 1422 1420 1420 1416 1416 1415 1414 1413 1414 1416 1417 1418 1416 1413 1411 1408 1407 1406 1404 1403 1402 1402 1402 1403 1403 1403 1405 1407 1408 1409 1410 1412 1414 1415 1417 1419 1420 1423 1425 1428 1430 1432 1434 1436 1437 1439
1421 1421 1423 1423 1423 1424 1424 1426 1425 1422 1420 1417 1416 1415 1414 1415 1420 1423 1422 1421 1419 1417 1415 1413 1411 1410 1409 1408 1407 1406 1407 1407 1409 1409 1411 1412 1413 1415 1415 1417 1418 1421 1425 1427 1428 1429 1431 1434 1436 1437 1439 1441 1443 1444
1422 1421 1421 1422 1422 1422 1422 1422 1421 1421 1423 1422 1419 1417 1415 1420 1424 1424 1423 1421 1420 1419 1417 1415 1414 1413 1412 1411 1411 1410 1411 1412 1413 1414 1415 1417 1418 1420 1423 1423 1425 1428 1431 1434 1436 1437 1438 1439 1441 1443 1444 1446 1447 1448
1418 1419 1422 1422 1421 1421 1423 1424 1424 1424 1423 1423 1421 1422 1422 1423 1425 1424 1422 1422 1421 1420 1419 1418 1417 1416 1415 1414 1414 1414 1414 1415 1417 1418 1420 1422 1424 1426 1428 1430 1432 1434 1437 1440 1442 1443 1445 1446 1447 1448 1450 1451 1451 1452
1419 1419 1420 1421 1421 1422 1424 1425 1424 1424 1423 1422 1422 1423 1425 1424 1424 1423 1423 1422 1422 1421 1421 1421 1420 1420 1419 1418 1418 1418 1418 1419 1421 1422 1424 1426 1428 1432 1434 1437 1439 1441 1443 1444 1446 1448 1450 1451 1452 1453 1454 1454 1454 1455
1419 1419 1419 1421 1422 1425 1424 1424 1425 1424 1423 1423 1423 1424 1425 1426 1426 1426 1425 1425 1424 1424 1424 1424 1424 1423 1423 1423 1422 1422 1423 1423 1425 1427 1427 1429 1432 1436 1439 1443 1446 1447 1449 1450 1451 1452 1454 1455 1455 1456 1457 1457 1457 1457
1418 1419 1419 1420 1422 1424 1424 1425 1425 1425 1425 1425 1425 1426 1427 1428 1428 1429 1428 1428 1428 1428 1428 1427 1427 1426 1426 1426 1426 1426 1426 1427 1429 1431 1434 1435 1438 1442 1445 1448 1450 1452 1454 1455 1456 1456 1457 1458 1458 1459 1460 1460 1460 1459
1419 1419 1419 1422 1424 1425 1425 1425 1425 1425 1426 1426 1427 1427 1429 1429 1430 1431 1430 1430 1430 1430 1430 1430 1429 1429 1429 1429 1429 1430 1431 1432 1434 1437 1439 1441 1444 1448 1451 1453 1454 1456 1458 1459 1459 1459 1461 1461 1461 1461 1461 1461 1461 1461
1420 1420 1420 1422 1424 1425 1425 1425 1425 1426 1427 1427 1428 1428 1429 1430 1431 1432 1431 1431 1431 1431 1431 1431 1431 1430 1430 1431 1432 1433 1435 1437 1439 1442 1444 1447 1450 1452 1455 1456 1458 1460 1461 1462 1462 1463 1463 1464 1463 1463 1463 1463 1462 1460